DW5750 Weather Reports


Display with metric or nautical units.
time (UTC)temp
F
wind
direction
speed
MPH
gust
MPH
rain 1hr
in
rain 24hr
in
rain mn
in
humidity
%
barometer
mb
20200227000050 80 115 3.0 7.0 0.00 0.00 0.00 100 1010.7
20200226234635 80 103 4.0 8.0 0.00 0.00 0.00 100 1010.4
20200226233150 80 128 4.0 6.0 0.00 0.00 0.00 100 1010.2
20200226231709 81 110 2.0 8.0 0.00 0.00 0.00 100 1010.1
20200226230121 81 120 6.0 10.0 0.00 0.00 0.00 100 1010.1
20200226224624 81 106 7.0 10.0 0.00 0.00 0.00 100 1010.0
20200226223122 81 110 8.0 11.0 0.00 0.00 0.00 100 1010.0
20200226221559 82 107 6.0 8.0 0.00 0.00 0.00 100 1010.1
20200226220136 81 103 7.0 11.0 0.00 0.00 0.00 100 1010.1
20200226214623 81 121 8.0 11.0 0.00 0.00 0.00 100 1010.1
20200226213053 81 117 8.0 10.0 0.00 0.00 0.00 100 1010.3
20200226211607 82 111 6.0 11.0 0.00 0.00 0.00 100 1010.6
20200226210052 82 127 6.0 12.0 0.00 0.00 0.00 100 1010.7
20200226204529 82 105 7.0 11.0 0.00 0.00 0.00 100 1010.8
20200226203158 82 131 8.0 12.0 0.00 0.00 0.00 100 1010.9
20200226201528 82 104 6.0 11.0 0.00 0.00 0.00 100 1011.1
20200226200035 82 117 8.0 12.0 0.00 0.00 0.00 100 1011.4
20200226194514 82 89 8.0 13.0 0.00 0.00 0.00 100 1011.8
20200226193029 81 105 10.0 13.0 0.00 0.00 0.00 100 1012.0
20200226191514 82 108 9.0 13.0 0.00 0.00 0.00 100 1012.1
20200226190000 81 110 9.0 12.0 0.00 0.00 0.00 100 1012.4
20200226184744 82 129 7.0 11.0 0.00 0.00 0.00 100 1012.5
20200226184653 82 127 7.0 11.0 0.00 0.00 0.00 100 1012.5
20200226183138 82 115 8.0 11.0 0.00 0.00 0.00 100 1012.7
20200226181612 82 120 8.0 11.0 0.00 0.00 0.00 100 1013.0
20200226180132 83 98 7.0 11.0 0.00 0.00 0.00 100 1013.1
20200226174556 82 110 8.0 12.0 0.00 0.00 0.00 100 1013.3
20200226173142 82 117 8.0 13.0 0.00 0.00 0.00 100 1013.5
20200226171558 82 129 8.0 12.0 0.00 0.00 0.00 100 1013.6
20200226170120 82 117 7.0 11.0 0.00 0.00 0.00 100 1013.6
20200226164553 82 117 7.0 12.0 0.00 0.00 0.00 100 1013.6
20200226163023 81 113 9.0 11.0 0.00 0.00 0.00 100 1013.7
20200226161548 81 90 7.0 11.0 0.00 0.00 0.00 100 1013.9
20200226160044 81 114 7.0 9.0 0.00 0.00 0.00 100 1013.8
20200226154515 82 121 6.0 11.0 0.00 0.00 0.00 100 1013.7
20200226153004 81 108 7.0 10.0 0.00 0.00 0.00 100 1013.6
20200226150150 81 111 6.0 10.0 0.00 0.00 0.00 100 1013.5
20200226144641 81 115 7.0 10.0 0.00 0.00 0.00 100 1013.6
20200226143129 80 101 7.0 10.0 0.00 0.00 0.00 100 1013.5
20200226141624 80 105 8.0 12.0 0.00 0.00 0.00 100 1013.3
20200226140048 80 132 6.0 10.0 0.00 0.00 0.00 100 1013.1
20200226134658 80 99 6.0 11.0 0.00 0.00 0.00 100 1012.8
20200226133130 79 128 6.0 10.0 0.00 0.00 0.00 100 1012.7
20200226131557 79 131 6.0 10.0 0.00 0.00 0.00 100 1012.6
20200226130049 78 110 4.0 8.0 0.00 0.00 0.00 100 1012.3
20200226124531 78 119 4.0 7.0 0.00 0.00 0.00 100 1012.1
20200226123047 78 110 3.0 8.0 0.00 0.00 0.00 100 1011.9
20200226121536 78 126 4.0 8.0 0.00 0.00 0.00 100 1011.8
20200226120230 78 119 5.0 8.0 0.00 0.00 0.00 100 1011.6
20200226114608 78 139 3.0 7.0 0.00 0.00 0.00 100 1011.4
20200226113237 78 133 3.0 7.0 0.00 0.00 0.00 100 1011.3
20200226111643 78 134 3.0 5.0 0.00 0.00 0.00 100 1011.1
20200226110124 78 167 2.0 4.0 0.00 0.00 0.00 100 1010.9
20200226104641 78 146 2.0 4.0 0.00 0.00 0.00 100 1010.8
20200226103106 78 129 2.0 4.0 0.00 0.00 0.00 100 1010.8
20200226101557 78 141 1.0 3.0 0.00 0.00 0.00 100 1010.7
20200226100037 78 122 2.0 4.0 0.00 0.00 0.00 100 1010.6
20200226094532 78 133 2.0 4.0 0.00 0.00 0.00 100 1010.6
20200226093020 79 117 2.0 4.0 0.00 0.00 0.00 100 1010.7
20200226090007 79 126 1.0 4.0 0.00 0.00 0.00 100 1010.7
20200226084507 79 104 1.0 3.0 0.00 0.00 0.00 100 1010.8
20200226083156 79 112 0.0 2.0 0.00 0.00 0.00 100 1010.8
20200226081609 79 128 1.0 3.0 0.00 0.00 0.00 100 1010.8
20200226080143 79 107 1.0 3.0 0.00 0.00 0.00 100 1010.9
20200226074700 79 132 2.0 4.0 0.00 0.00 0.00 100 1010.9
20200226073142 79 135 1.0 4.0 0.00 0.00 0.00 100 1011.0
20200226071602 79 136 2.0 5.0 0.00 0.00 0.00 100 1011.2
20200226070125 79 124 4.0 6.0 0.00 0.00 0.00 100 1011.4
20200226064538 79 134 4.0 7.0 0.00 0.00 0.00 100 1011.5
20200226063022 79 132 3.0 5.0 0.00 0.00 0.00 100 1011.7
20200226061543 79 133 2.0 6.0 0.00 0.00 0.00 100 1011.8
20200226060010 79 114 2.0 7.0 0.00 0.00 0.00 100 1011.8
20200226054514 79 134 4.0 7.0 0.00 0.00 0.00 100 1012.0
20200226053117 79 118 3.0 6.0 0.00 0.00 0.00 100 1012.2
20200226051535 79 127 3.0 7.0 0.00 0.00 0.00 100 1012.3
20200226044715 79 117 4.0 9.0 0.00 0.00 0.00 100 1012.4
20200226043109 79 113 6.0 10.0 0.00 0.00 0.00 100 1012.2
20200226041711 79 111 7.0 9.0 0.00 0.00 0.00 100 1012.2
20200226040056 79 105 5.0 7.0 0.00 0.00 0.00 100 1012.1
20200226034634 80 119 3.0 7.0 0.00 0.00 0.00 100 1012.1
20200226033210 80 120 5.0 8.0 0.00 0.00 0.00 100 1011.9
20200226031614 80 116 4.0 9.0 0.00 0.00 0.00 100 1011.8
20200226030141 80 115 6.0 9.0 0.00 0.00 0.00 100 1011.6
20200226024529 80 127 6.0 10.0 0.00 0.00 0.00 100 1011.5
20200226023036 80 119 6.0 9.0 0.00 0.00 0.00 100 1011.3
20200226021819 80 121 6.0 9.0 0.00 0.00 0.00 100 1011.1
20200226020218 80 106 5.0 10.0 0.00 0.00 0.00 100 1011.0
20200226014637 80 87 5.0 10.0 0.00 0.00 0.00 100 1010.8
20200226013112 80 109 5.0 8.0 0.00 0.00 0.00 100 1010.8
20200226011745 80 108 6.0 8.0 0.00 0.00 0.00 100 1010.7
20200226010051 80 101 4.0 8.0 0.00 0.00 0.00 100 1010.7
20200226004509 80 119 6.0 9.0 0.00 0.00 0.00 100 1010.5
20200226003137 80 126 5.0 8.0 0.00 0.00 0.00 100 1010.2
20200226001647 81 114 5.0 8.0 0.00 0.00 0.00 100 1010.2